Hourly Weather Kalgoorlie

Today, 25 October, Sunday

Time Temperature Precipitation Wind Pressure Humidity
00:00 +15°C° 0 mm 9 mps 732 mmHg 46%
01:00 +13°C° 0 mm 9 mps 731 mmHg 50%
02:00 +13°C° 0 mm 9 mps 731 mmHg 54%
03:00 +12°C° 0 mm 8 mps 731 mmHg 56%
04:00 +12°C° 0 mm 7 mps 731 mmHg 58%
05:00 +11°C° 0 mm 7 mps 731 mmHg 60%
06:00 +12°C° 0 mm 7 mps 732 mmHg 56%
07:00 +15°C° 0 mm 7 mps 732 mmHg 52%
08:00 +16°C° 0 mm 8 mps 732 mmHg 47%
09:00 +18°C° 0 mm 8 mps 732 mmHg 41%
10:00 +21°C° 0 mm 8 mps 732 mmHg 35%
11:00 +23°C° 0 mm 8 mps 732 mmHg 28%
12:00 +24°C° 0 mm 7 mps 731 mmHg 26%
13:00 +26°C° 0 mm 7 mps 730 mmHg 23%
14:00 +26°C° 0 mm 6 mps 730 mmHg 21%
15:00 +26°C° 0 mm 6 mps 730 mmHg 21%
16:00 +26°C° 0 mm 6 mps 729 mmHg 21%
17:00 +26°C° 0 mm 6 mps 729 mmHg 21%
18:00 +25°C° 0 mm 5 mps 729 mmHg 23%
19:00 +23°C° 0 mm 5 mps 730 mmHg 25%
20:00 +21°C° 0 mm 5 mps 730 mmHg 27%
21:00 +21°C° 0 mm 5 mps 730 mmHg 28%
22:00 +20°C° 0 mm 5 mps 730 mmHg 30%
23:00 +19°C° 0 mm 5 mps 730 mmHg 31%

Tomorrow, 26 October, Monday

Time Temperature Precipitation Wind Pressure Humidity
00:00 +19°C° 0 mm 6 mps 729 mmHg 33%
01:00 +17°C° 0 mm 7 mps 729 mmHg 35%
02:00 +16°C° 0 mm 7 mps 728 mmHg 37%
03:00 +16°C° 0 mm 8 mps 728 mmHg 38%
04:00 +15°C° 0 mm 8 mps 728 mmHg 39%
05:00 +13°C° 0 mm 8 mps 728 mmHg 40%
06:00 +16°C° 0 mm 8 mps 728 mmHg 37%
07:00 +17°C° 0 mm 9 mps 729 mmHg 35%
08:00 +19°C° 0 mm 9 mps 729 mmHg 32%
09:00 +22°C° 0 mm 9 mps 729 mmHg 28%
10:00 +24°C° 0 mm 9 mps 728 mmHg 24%
11:00 +27°C° 0 mm 8 mps 728 mmHg 20%
12:00 +29°C° 0 mm 8 mps 728 mmHg 19%
13:00 +30°C° 0 mm 7 mps 727 mmHg 17%
14:00 +32°C° 0 mm 6 mps 727 mmHg 16%
15:00 +32°C° 0 mm 6 mps 727 mmHg 16%
16:00 +32°C° 0 mm 5 mps 726 mmHg 16%
17:00 +32°C° 0 mm 5 mps 726 mmHg 17%
18:00 +29°C° 0 mm 5 mps 726 mmHg 18%
19:00 +28°C° 0 mm 4 mps 726 mmHg 20%
20:00 +26°C° 0 mm 4 mps 727 mmHg 22%
21:00 +26°C° 0 mm 5 mps 726 mmHg 22%
22:00 +24°C° 0 mm 7 mps 726 mmHg 22%
23:00 +24°C° 0 mm 8 mps 726 mmHg 22%

Day after tomorrow, 27 October, Tuesday

Time Temperature Precipitation Wind Pressure Humidity
00:00 +23°C° 0 mm 7 mps 726 mmHg 22%
01:00 +23°C° 0 mm 7 mps 726 mmHg 23%
02:00 +22°C° 0 mm 7 mps 726 mmHg 23%
03:00 +21°C° 0 mm 6 mps 726 mmHg 24%
04:00 +20°C° 0 mm 5 mps 726 mmHg 26%
05:00 +19°C° 0 mm 4 mps 726 mmHg 27%
06:00 +21°C° 0 mm 4 mps 727 mmHg 24%
07:00 +25°C° 0 mm 5 mps 728 mmHg 21%
08:00 +27°C° 0 mm 5 mps 728 mmHg 18%
09:00 +29°C° 0 mm 6 mps 728 mmHg 17%
10:00 +32°C° 0 mm 6 mps 728 mmHg 16%
11:00 +34°C° 0 mm 7 mps 728 mmHg 14%
12:00 +35°C° 0 mm 7 mps 727 mmHg 13%
13:00 +38°C° 0 mm 7 mps 727 mmHg 13%
14:00 +39°C° 0 mm 7 mps 727 mmHg 12%
15:00 +38°C° 0 mm 6 mps 726 mmHg 12%
16:00 +38°C° 0 mm 6 mps 726 mmHg 12%
17:00 +38°C° 0 mm 6 mps 726 mmHg 12%
18:00 +35°C° 0 mm 6 mps 726 mmHg 14%
19:00 +34°C° 0 mm 7 mps 726 mmHg 15%
20:00 +32°C° 0 mm 7 mps 726 mmHg 17%
21:00 +30°C° 0 mm 7 mps 726 mmHg 16%
22:00 +31°C° 0 mm 8 mps 726 mmHg 15%
23:00 +29°C° 0 mm 9 mps 726 mmHg 14%

28 October, Wednesday

Time Temperature Precipitation Wind Pressure Humidity
00:00 +29°C° 0 mm 8 mps 726 mmHg 15%
01:00 +28°C° 0 mm 7 mps 726 mmHg 15%
02:00 +28°C° 0 mm 7 mps 726 mmHg 16%
03:00 +27°C° 0.1 mm 6 mps 727 mmHg 18%
04:00 +25°C° 0.1 mm 5 mps 727 mmHg 21%
05:00 +23°C° 0.1 mm 4 mps 727 mmHg 24%
06:00 +26°C° 0 mm 5 mps 728 mmHg 21%
07:00 +28°C° 0 mm 7 mps 728 mmHg 19%
08:00 +31°C° 0 mm 8 mps 729 mmHg 17%
09:00 +33°C° 0 mm 8 mps 729 mmHg 17%
10:00 +35°C° 0 mm 7 mps 728 mmHg 17%
11:00 +38°C° 0 mm 7 mps 728 mmHg 17%
12:00 +38°C° 0 mm 6 mps 727 mmHg 16%
13:00 +39°C° 0 mm 6 mps 727 mmHg 16%
14:00 +39°C° 0 mm 5 mps 726 mmHg 16%
15:00 +38°C° 0 mm 4 mps 726 mmHg 16%
16:00 +38°C° 0 mm 3 mps 726 mmHg 16%
17:00 +38°C° 0 mm 2 mps 726 mmHg 16%
18:00 +34°C° 0 mm 6 mps 727 mmHg 26%
19:00 +29°C° 0 mm 10 mps 728 mmHg 37%
20:00 +24°C° 0 mm 14 mps 729 mmHg 47%
21:00 +22°C° 0 mm 13 mps 730 mmHg 50%
22:00 +21°C° 0 mm 12 mps 730 mmHg 54%
23:00 +18°C° 0 mm 10 mps 731 mmHg 57%

29 October, Thursday

Time Temperature Precipitation Wind Pressure Humidity
00:00 +17°C° 0 mm 10 mps 731 mmHg 58%
01:00 +17°C° 0 mm 10 mps 731 mmHg 58%
02:00 +16°C° 0 mm 9 mps 731 mmHg 59%
03:00 +16°C° 0 mm 9 mps 731 mmHg 61%
04:00 +15°C° 0 mm 9 mps 731 mmHg 63%
05:00 +15°C° 0 mm 9 mps 731 mmHg 64%
06:00 +16°C° 0 mm 9 mps 732 mmHg 60%
07:00 +17°C° 0 mm 9 mps 732 mmHg 57%
08:00 +18°C° 0 mm 10 mps 733 mmHg 53%
09:00 +22°C° 0 mm 9 mps 732 mmHg 46%
10:00 +26°C° 0 mm 9 mps 732 mmHg 38%
11:00 +28°C° 0 mm 9 mps 732 mmHg 31%
12:00 +29°C° 0 mm 9 mps 731 mmHg 29%
13:00 +32°C° 0 mm 9 mps 731 mmHg 27%
14:00 +33°C° 0 mm 9 mps 730 mmHg 26%
15:00 +32°C° 0 mm 9 mps 730 mmHg 27%
16:00 +31°C° 0 mm 9 mps 730 mmHg 29%
17:00 +29°C° 0 mm 10 mps 730 mmHg 30%
18:00 +27°C° 0 mm 10 mps 730 mmHg 35%
19:00 +23°C° 0 mm 10 mps 731 mmHg 39%
20:00 +21°C° 0 mm 11 mps 731 mmHg 43%
21:00 +18°C° 0 mm 10 mps 731 mmHg 47%
22:00 +17°C° 0 mm 10 mps 732 mmHg 50%
23:00 +15°C° 0 mm 9 mps 732 mmHg 53%

30 October, Friday

Time Temperature Precipitation Wind Pressure Humidity
00:00 +13°C° 0 mm 9 mps 732 mmHg 55%
01:00 +13°C° 0 mm 9 mps 731 mmHg 57%
02:00 +12°C° 0 mm 9 mps 731 mmHg 60%
03:00 +11°C° 0 mm 9 mps 731 mmHg 62%
04:00 +11°C° 0 mm 8 mps 731 mmHg 65%
05:00 +10°C° 0 mm 7 mps 732 mmHg 67%
06:00 +12°C° 0 mm 7 mps 732 mmHg 61%
07:00 +14°C° 0 mm 7 mps 732 mmHg 55%
08:00 +15°C° 0 mm 7 mps 732 mmHg 49%
09:00 +18°C° 0 mm 8 mps 732 mmHg 41%
10:00 +22°C° 0 mm 8 mps 731 mmHg 33%
11:00 +24°C° 0 mm 8 mps 731 mmHg 24%
12:00 +27°C° 0 mm 8 mps 730 mmHg 22%
13:00 +28°C° 0 mm 8 mps 730 mmHg 20%
14:00 +29°C° 0 mm 8 mps 729 mmHg 19%
15:00 +29°C° 0 mm 8 mps 729 mmHg 19%
16:00 +28°C° 0 mm 8 mps 729 mmHg 19%
17:00 +28°C° 0 mm 8 mps 729 mmHg 19%
18:00 +27°C° 0 mm 8 mps 729 mmHg 22%
19:00 +24°C° 0 mm 8 mps 729 mmHg 24%
20:00 +23°C° 0 mm 8 mps 730 mmHg 26%
21:00 +21°C° 0 mm 8 mps 730 mmHg 31%
22:00 +20°C° 0 mm 8 mps 730 mmHg 36%
23:00 +18°C° 0 mm 8 mps 730 mmHg 41%
Show more